TimeEST,TemperatureF,Dew PointF,Humidity,Sea Level PressureIn,VisibilityMPH,Wind Direction,Wind SpeedMPH,Gust SpeedMPH,PrecipitationIn,Events,Conditions,WindDirDegrees,DateUTC
12:55 AM,51.1,42.4,72,30.11,10.0,NW,9.2,-,N/A,,Clear,310,2012-11-24 05:55:00
1:55 AM,46.0,40.3,80,30.12,10.0,NW,6.9,-,N/A,,Clear,310,2012-11-24 06:55:00
2:55 AM,44.2,39.4,83,30.12,10.0,NW,8.1,-,N/A,,Clear,310,2012-11-24 07:55:00
3:55 AM,40.8,36.5,85,30.12,10.0,NW,8.1,-,N/A,,Clear,320,2012-11-24 08:55:00
4:55 AM,41.4,36.5,83,30.13,10.0,NW,9.2,-,N/A,,Clear,320,2012-11-24 09:55:00
5:55 AM,36.7,33.1,87,30.15,10.0,WNW,8.1,-,N/A,,Clear,300,2012-11-24 10:55:00
6:55 AM,35.2,31.8,87,30.17,10.0,WNW,5.8,-,N/A,,Clear,300,2012-11-24 11:55:00
7:55 AM,35.6,31.8,86,30.19,10.0,NW,6.9,-,N/A,,Clear,310,2012-11-24 12:55:00
8:55 AM,43.9,33.6,67,30.20,10.0,NW,12.7,-,N/A,,Clear,320,2012-11-24 13:55:00
9:55 AM,47.8,32.0,54,30.22,10.0,NNW,8.1,-,N/A,,Clear,330,2012-11-24 14:55:00
10:55 AM,50.5,27.9,42,30.22,10.0,NW,10.4,-,N/A,,Clear,320,2012-11-24 15:55:00
12:55 PM,56.5,20.3,24,30.15,10.0,NW,12.7,-,N/A,,Clear,320,2012-11-24 17:55:00
1:55 PM,59.0,21.6,24,30.13,10.0,NNW,11.5,-,N/A,,Clear,330,2012-11-24 18:55:00
2:55 PM,59.4,20.5,22,30.12,10.0,NNW,9.2,16.1,N/A,,Clear,330,2012-11-24 19:55:00
3:55 PM,59.0,18.9,21,30.12,10.0,North,10.4,-,N/A,,Clear,360,2012-11-24 20:55:00
4:55 PM,56.1,19.0,24,30.13,10.0,NNW,8.1,-,N/A,,Clear,330,2012-11-24 21:55:00
5:55 PM,45.7,18.9,34,30.14,10.0,NW,4.6,-,N/A,,Clear,310,2012-11-24 22:55:00
6:55 PM,38.3,23.4,55,30.16,10.0,WNW,3.5,-,N/A,,Clear,290,2012-11-24 23:55:00
7:55 PM,38.7,26.1,61,30.16,10.0,Calm,Calm,-,N/A,,Clear,0,2012-11-25 00:55:00
8:52 PM,37.4,23.0,56,30.17,7.0,WNW,3.5,-,N/A,,Clear,300,2012-11-25 01:52:00
8:55 PM,36.9,22.8,57,30.17,7.0,NW,3.5,-,N/A,,Clear,310,2012-11-25 01:55:00
9:03 PM,37.4,23.0,56,30.17,8.0,WNW,4.6,-,N/A,,Clear,300,2012-11-25 02:03:00
9:55 PM,32.0,23.0,69,30.18,10.0,NW,5.8,-,N/A,,Clear,310,2012-11-25 02:55:00
10:55 PM,35.1,24.4,65,30.17,10.0,Calm,Calm,-,N/A,,Clear,0,2012-11-25 03:55:00
11:55 PM,32.2,25.0,75,30.17,10.0,Calm,Calm,-,N/A,,Clear,0,2012-11-25 04:55:00